Location: Golden Pond Observatory
(36.7667°N, 88.0167°W)
Time: 17:21:05
(UTC-05:00)

ISS - Pass Details

Date: 24 July 2018
Orbit: 401 x 409 km, 51.6° (Epoch: 19 August)

Event Time Altitude Azimuth Distance (km) Brightness Sun altitude
Rises 20:58:46 0° 266° (W) 2,313 0.9 -10.1°
Reaches altitude 10° 21:01:18 10° 286° (WNW) 1,459 0.3 -10.5°
Maximum altitude 21:03:39 18° 332° (NNW) 1,072 -0.8 -10.9°
Drops below altitude 10° 21:06:00 10° 18° (NNE) 1,467 -0.8 -11.3°
Sets 21:08:33 0° 39° (NE) 2,332 0.0 -11.7°
